Location: Newark
(58.8333°N, 23.5833°E)
Time: 12:45:24
(UTC+00:00)

A-11 Canister half - Pass Details

Date: 25 November 2019
Orbit: 1515 x 1685 km, 47.2° (Epoch: 08 December)

Event Time Altitude Azimuth Distance (km) Brightness Sun altitude
Rises 19:56:23 0° 276° (W) 4,934 12.2 -44.8°
Reaches altitude 10° 20:00:02 10° 266° (W) 3,951 11.5 -45.1°
Enters shadow 20:04:56 25° 241° (WSW) 2,938 10.5 -45.6°
Maximum altitude 20:08:20 30° 211° (SSW) 2,678 - -45.9°
Drops below altitude 10° 20:16:35 10° 155° (SSE) 3,916 - -46.6°
Sets 20:20:12 0° 146° (SE) 4,883 - -46.9°
